Location: PSU-Greenbush Astrophysical Observatory
(37.5140°N, 94.9880°W)
Time: 02:09:05
(UTC-06:00)

Vanguard 1 Rocket - All Passes

Search period start: 25 January 2020 00:00
Search period end: 04 February 2020 00:00
Orbit: 650 x 4226 km, 34.3° (Epoch: 24 January)

Date Brightness Start Highest point End Pass type
(mag) Time Alt. Az. Time Alt. Az. Time Alt. Az.
25 Jan - 08:22:22 10° SSW 08:27:51 30° SE 08:36:53 10° E daylight
25 Jan - 10:44:41 10° WSW 10:53:04 72° SSE 11:10:09 10° E daylight
25 Jan - 13:09:14 10° W 13:21:34 75° S 13:44:50 10° ESE daylight
25 Jan - 15:35:33 10° W 15:52:03 51° SSW 16:16:20 10° SE daylight
25 Jan - 18:07:14 10° W 18:22:25 22° SW 18:39:23 10° S visible
26 Jan - 07:14:33 10° SSE 07:17:35 14° SE 07:21:23 10° ESE daylight
26 Jan - 09:34:32 10° SW 09:41:22 58° SSE 09:54:39 10° E daylight
26 Jan - 11:58:20 10° W 12:08:24 78° S 12:28:43 10° E daylight
26 Jan - 14:23:38 10° W 14:37:57 61° SSW 15:02:13 10° SE daylight
26 Jan - 16:51:59 10° W 17:08:30 33° SW 17:29:32 10° SSE daylight
27 Jan - 08:24:53 10° SSW 08:30:24 37° SE 08:39:51 10° E daylight
27 Jan - 10:47:46 10° WSW 10:55:57 75° S 11:12:42 10° E daylight
27 Jan - 13:12:20 10° W 13:24:19 70° SSW 13:46:59 10° ESE daylight
27 Jan - 15:38:49 10° W 15:54:27 43° SSW 16:17:26 10° SSE daylight
27 Jan - 18:12:57 10° WSW 18:24:36 16° SW 18:37:28 10° SSW visible
28 Jan - 07:16:08 10° S 07:20:00 19° SE 07:25:18 10° E daylight
28 Jan - 09:37:30 10° WSW 09:44:11 64° SSE 09:57:18 10° E daylight
28 Jan - 12:01:27 10° W 12:11:17 75° S 12:31:06 10° ESE daylight
28 Jan - 14:26:47 10° W 14:40:33 54° SSW 15:03:46 10° SE daylight
28 Jan - 16:56:02 10° W 17:10:47 26° SW 17:29:23 10° S daylight
29 Jan - 08:27:36 10° SW 08:33:05 45° SSE 08:42:42 10° E daylight
29 Jan - 10:50:53 10° W 10:58:52 76° S 11:15:15 10° E daylight
29 Jan - 13:15:27 10° W 13:27:03 63° SSW 13:48:56 10° SE daylight
29 Jan - 15:42:17 10° W 15:56:54 36° SSW 16:18:06 10° SSE daylight
29 Jan - 18:23:29 10° SW 18:27:00 10° SW 18:30:37 10° SW visible
30 Jan - 07:18:18 10° SSW 07:22:32 25° SE 07:28:42 10° E daylight
30 Jan - 09:40:33 10° WSW 09:47:06 69° SSE 09:59:58 10° E daylight
30 Jan - 12:04:34 10° W 12:14:09 71° S 12:33:24 10° ESE daylight
30 Jan - 14:30:02 10° W 14:43:10 46° SSW 15:05:00 10° SE daylight
30 Jan - 17:00:55 10° WSW 17:13:12 19° SW 17:28:15 10° S daylight
31 Jan - 06:11:04 10° SSE 06:12:17 11° SE 06:13:34 10° ESE visible
31 Jan - 08:30:29 10° SW 08:35:54 53° SSE 08:45:32 10° E daylight
31 Jan - 10:54:00 10° W 11:01:50 75° S 11:17:46 10° ESE daylight
31 Jan - 13:18:36 10° W 13:29:49 55° SSW 13:50:39 10° SE daylight
31 Jan - 15:46:08 10° W 15:59:26 29° SW 16:18:14 10° SSE daylight
01 Feb - 07:20:49 10° SSW 07:25:14 33° SSE 07:31:50 10° E daylight
01 Feb - 09:43:39 10° WSW 09:50:04 72° S 10:02:38 10° E daylight
01 Feb - 12:07:43 10° W 12:17:01 64° SSW 12:35:32 10° ESE daylight
01 Feb - 14:33:28 10° W 14:45:50 38° SSW 15:05:52 10° SSE daylight
01 Feb - 17:07:43 10° WSW 17:15:47 13° SW 17:25:01 10° SSW daylight
02 Feb - 06:12:00 10° S 06:14:52 16° SE 06:18:16 10° ESE visible
02 Feb - 08:33:28 10° WSW 08:38:49 61° SSE 08:48:19 10° E daylight
02 Feb - 10:57:09 10° W 11:04:47 71° S 11:20:13 10° ESE daylight
02 Feb - 13:21:52 10° W 13:32:36 47° SSW 13:52:06 10° SE daylight
02 Feb - 15:50:35 10° WSW 16:02:04 22° SW 16:17:33 10° S daylight
03 Feb - 07:23:33 10° SW 07:28:02 41° SSE 07:34:51 10° E daylight
03 Feb - 09:46:47 10° W 09:53:04 73° S 10:05:16 10° E daylight
03 Feb - 12:10:55 10° W 12:19:54 56° SSW 12:37:29 10° SE daylight
03 Feb - 14:37:11 10° W 14:48:34 30° SSW 15:06:15 10° SSE daylight
